[[{"header":{"parameterUnit":"m.s-1","parameterCategory":1,"la1":30.2992,"la2":30.254,"lo1":-89.0895,"lo2":-89.0443,"dy":0.0025,"dx":0.0025,"nx":19,"ny":19,"refTime":"2026-04-24T03:00:00:Z","depth":0,"parameterNumber":2,"parameterNumberName":"U-component_of_WINDS"},"data":[0,0,0,-1.817,-1.8169,-1.808,-1.8079,-1.7982,-1.7981,0,0,0,0,0,0,0,0,0,0,0,-1.8207,-1.8206,-1.817,-1.8168,-1.808,-1.8079,-1.7982,-1.7981,0,0,0,0,0,0,0,0,0,0,0,-1.8207,-1.8206,-1.8206,-1.8168,-1.808,-1.8079,-1.7982,-1.8043,0,0,0,0,0,0,0,0,0,0,-1.8127,-1.817,-1.8206,-1.8206,-1.8168,-1.808,-1.8079,-1.8046,-1.8039,-1.8029,0,-1.8023,0,-1.8,-1.7976,-1.7975,0,0,0,-1.8161,-1.8176,-1.8143,-1.8206,-1.8167,-1.808,-1.8118,-1.8042,-1.8035,-1.802,-1.8021,-1.8017,-1.7999,-1.7975,-1.7975,-1.7939,-1.7939,0,0,-1.8166,-1.8196,-1.8148,-1.8138,-1.8154,-1.8121,-1.8115,-1.8037,-1.804,-1.8021,-1.8014,-1.7997,-1.7975,-1.7974,-1.7939,-1.7939,0,0,0,-1.8185,-1.82,-1.8168,-1.8143,-1.8126,-1.8118,-1.8112,-1.8043,-1.8031,-1.8013,-1.7996,-1.7974,-1.7973,-1.7938,-1.7939,-1.7976,0,0,0,-1.8187,-1.8211,-1.8171,-1.8188,-1.8128,-1.8084,-1.812,-1.8036,-1.8026,-1.7997,-1.7974,-1.7972,-1.7938,-1.7939,-1.7975,-1.7989,0,0,0,-1.8209,-1.8213,-1.8204,-1.819,-1.8153,-1.8084,-1.8067,-1.8033,-1.8016,-1.7975,-1.7972,-1.7938,-1.7939,-1.7973,-1.7986,-1.7987,0,0,0,-1.824,-1.8239,-1.8205,-1.8197,-1.8154,-1.8109,-1.8067,-1.8031,-1.8001,-1.7974,-1.7938,-1.7939,-1.7973,-1.7985,-1.7985,-1.7991,-1.7997,0,0,-1.8256,-1.8242,-1.8235,-1.8202,-1.817,-1.812,-1.8093,-1.8036,-1.8005,-1.7963,-1.7961,-1.7975,-1.7986,-1.7986,-1.8022,-1.8027,0,0,0,-1.825,-1.8245,-1.823,-1.8203,-1.816,-1.8123,-1.8068,-1.8046,-1.8009,-1.799,-1.7975,-1.7981,-1.798,-1.7981,-1.7985,-1.7982,-1.7941,-1.7941,-1.7941,-1.8315,-1.8274,-1.8259,-1.8208,-1.8182,-1.8124,-1.8099,-1.806,-1.8028,-1.8025,-1.8012,-1.8038,-1.8041,-1.8044,-1.8041,-1.8013,-1.8013,-1.8013,-1.8013,-1.8332,-1.8318,-1.8274,-1.8244,-1.8201,-1.8175,-1.812,-1.8097,-1.8066,-1.8045,-1.8042,-1.8021,-1.805,-1.8045,-1.8016,-1.8015,-1.8015,-1.8015,-1.8015,-1.8368,-1.8354,-1.8329,-1.8284,-1.8253,-1.8202,-1.8174,-1.8136,-1.8101,-1.8098,-1.8078,-1.8078,-1.8071,-1.8092,-1.8092,-1.8092,-1.8092,-1.8092,-1.8092,-1.8415,-1.8385,-1.8366,-1.832,-1.8296,-1.8261,-1.8203,-1.8179,-1.8142,-1.8117,-1.8116,-1.8083,-1.8061,-1.8056,-1.8093,-1.8093,-1.8093,-1.8093,-1.8093,-1.8445,-1.8432,-1.8403,-1.8379,-1.8321,-1.8293,-1.8245,-1.8199,-1.8174,-1.8161,-1.8129,-1.8119,-1.8102,-1.8099,-1.8094,-1.8138,-1.8138,-1.8138,-1.8138,-1.8474,-1.8462,-1.8423,-1.8388,-1.8349,-1.8303,-1.827,-1.8225,-1.8176,-1.8158,-1.8146,-1.8137,-1.8135,-1.8119,-1.8115,-1.8109,-1.8157,-1.8157,-1.8157,-1.8489,-1.8472,-1.8451,-1.8403,-1.8355,-1.8314,-1.8281,-1.8242,-1.8184,-1.8157,-1.8142,-1.8141,-1.8126,-1.8123,-1.8095,-1.8089,-1.8078,0,0]},{"header":{"parameterUnit":"m.s-1","parameterCategory":1,"la1":30.2992,"la2":30.254,"lo1":-89.0895,"lo2":-89.0443,"dy":0.0025,"dx":0.0025,"nx":19,"ny":19,"refTime":"2026-04-24T03:00:00:Z","depth":0,"parameterNumber":3,"parameterNumberName":"V-component_of_WINDS"},"data":[0,0,0,2.1074,2.108,2.1348,2.1349,2.1679,2.1682,0,0,0,0,0,0,0,0,0,0,0,2.0979,2.098,2.1074,2.108,2.1348,2.1349,2.1678,2.1682,0,0,0,0,0,0,0,0,0,0,0,2.0978,2.098,2.0982,2.1081,2.1348,2.1349,2.1678,2.1482,0,0,0,0,0,0,0,0,0,0,2.1225,2.1119,2.098,2.0982,2.1082,2.1347,2.135,2.1473,2.1494,2.1549,0,2.1586,0,2.1638,2.1702,2.1703,0,0,0,2.1095,2.1101,2.1187,2.0982,2.1085,2.1347,2.1231,2.1485,2.1509,2.1577,2.1591,2.1604,2.1644,2.1704,2.1706,2.1954,2.1955,0,0,2.108,2.1021,2.117,2.1201,2.115,2.1222,2.1239,2.15,2.1515,2.1593,2.1612,2.1649,2.1706,2.1709,2.1954,2.1954,0,0,0,2.1027,2.101,2.109,2.1187,2.1236,2.123,2.1249,2.1503,2.1534,2.1616,2.1653,2.1708,2.1712,2.1953,2.1954,2.1917,0,0,0,2.1019,2.0979,2.1082,2.1049,2.123,2.1371,2.1246,2.1516,2.1547,2.1651,2.1708,2.1715,2.1953,2.1954,2.1917,2.1911,0,0,0,2.0967,2.0974,2.1006,2.1045,2.1157,2.1368,2.1415,2.1524,2.1569,2.1703,2.1715,2.1953,2.1954,2.1917,2.1911,2.1958,0,0,0,2.0897,2.0974,2.1004,2.1105,2.1155,2.134,2.1413,2.1557,2.1668,2.171,2.1953,2.1954,2.1917,2.1911,2.1957,2.1986,2.1992,0,0,2.0962,2.0979,2.1044,2.1079,2.1242,2.1305,2.1468,2.1629,2.1701,2.1868,2.1875,2.1917,2.1911,2.1958,2.2045,2.2049,0,0,0,2.1045,2.109,2.1146,2.1244,2.1364,2.1468,2.161,2.167,2.1813,2.1771,2.1949,2.1947,2.1977,2.1994,2.1997,2.2028,2.1959,2.1959,2.1958,2.1053,2.1133,2.1245,2.1357,2.1453,2.1596,2.1683,2.179,2.1849,2.1889,2.1939,2.1981,2.1998,2.2001,2.2032,2.1961,2.1961,2.1961,2.1961,2.1156,2.1233,2.1303,2.1436,2.1523,2.1639,2.1782,2.1819,2.1944,2.1951,2.1982,2.1982,2.2003,2.2034,2.1959,2.1959,2.1959,2.1959,2.196,2.1171,2.1221,2.1288,2.1437,2.1545,2.1659,2.1773,2.1851,2.1926,2.1956,2.2018,2.2019,2.203,2.1979,2.1979,2.198,2.198,2.198,2.198,2.116,2.1236,2.1318,2.1449,2.1522,2.1628,2.1772,2.185,2.1955,2.2003,2.2004,2.206,2.1988,2.1969,2.1983,2.1982,2.1982,2.1982,2.1981,2.1235,2.1229,2.1356,2.1428,2.1589,2.1691,2.1787,2.1936,2.2011,2.2066,2.2115,2.2049,2.2076,2.2074,2.2058,2.2095,2.2095,2.2095,2.2095,2.1247,2.1266,2.1413,2.1523,2.164,2.1738,2.1886,2.2,2.2119,2.2172,2.2178,2.2164,2.2158,2.2189,2.2185,2.2172,2.2236,2.2236,2.2237,2.1299,2.1332,2.1439,2.1546,2.1678,2.1791,2.1933,2.2063,2.2197,2.2244,2.2215,2.2209,2.2188,2.2176,2.2223,2.2214,2.2192,0,0]}]]